Location: Bellville
(33.9002°S, 18.6285°E)
Time: 21:18:17
(UTC+00:00)

Daily predictions for brighter satellites

Satellite Brightness Start Highest point End
(mag) Time Altitude Azimuth Time Altitude Azimuth Time Altitude Azimuth
Cosmos 1538 Rocket 4.1 17:00:53 10° NNW 17:06:17 87° ENE 17:11:44 10° SSE
BREEZE-M DEB (TANK) 3.5 17:01:30 10° SW 17:07:51 58° NW 17:10:31 10° NNE
GEOS 3 Rocket 3.7 17:04:47 10° SSE 17:09:53 83° SW 17:14:59 10° NW
FengYun 1-2 T 4.4 17:05:42 10° SSE 17:11:08 52° E 17:16:29 10° N
APEX 2.8 17:08:25 10° SSW 17:12:05 64° ESE 17:15:05 10° NNE
Cosmos 1437 3.9 17:12:59 10° NE 17:15:18 20° E 17:17:38 10° SE
Cosmos 1340 Rocket 3.7 17:13:21 10° SSE 17:16:50 28° ESE 17:20:15 10° NE
Cosmos 2151 Rocket 4.1 17:12:47 10° SSW 17:17:13 65° W 17:21:36 10° N
COSMOS 2455 2.9 17:11:16 10° SSW 17:17:20 87° WNW 17:23:21 10° NNE
Cosmos 1733 3.8 17:15:38 10° S 17:19:19 37° E 17:22:57 10° NNE
Meteor 1-15 Rocket 4.3 17:16:03 10° S 17:21:43 85° W 17:27:17 10° N
H-2A ROCKET BODY 3.6 17:17:42 10° NW 17:22:24 51° NNE 17:41:16 12° E
Aureole 2 Rocket 3.2 17:19:58 10° SSW 17:22:59 48° WNW 17:26:04 10° N
OAO 3 Rocket 3.2 17:19:22 10° W 17:24:05 82° S 17:28:23 12° E
Okean O Rocket 2.8 17:20:45 10° S 17:25:05 49° WSW 17:29:23 10° NNW
TIMED 4.5 17:22:06 10° N 17:26:26 70° ENE 17:30:50 10° SSE
Cosmos 1680 Rocket 3.9 17:22:52 10° N 17:27:49 41° E 17:32:49 10° SSE
Okean 2 3.4 17:24:15 10° N 17:28:18 60° E 17:32:24 10° SSE
Cosmos 1805 3.2 17:26:59 10° S 17:30:57 84° E 17:34:51 10° N
H-2A R/B 3.6 17:28:59 10° ESE 17:30:52 13° E 17:30:52 13° E
Cosmos 2369 Rocket 4.0 17:30:12 10° SSE 17:32:20 12° SE 17:33:57 11° ESE
CZ-4B R/B 4.3 17:27:26 10° S 17:32:39 48° WSW 17:37:52 10° NW
SMAP 4.4 17:28:44 10° S 17:33:13 45° WSW 17:37:40 10° NW
OAO 2 Rocket 4.2 17:29:36 10° NW 17:33:57 31° NNE 17:37:03 17° E
Delta 2 Rocket 4.1 17:29:07 10° W 17:34:53 81° S 17:39:30 15° ESE
RESURS DK-1 3.5 17:33:06 10° SW 17:37:05 45° WNW 17:41:02 10° N
CZ-3A R/B 4.3 17:32:28 10° SW 17:38:55 76° SE 17:58:01 10° NE
Cosmos 2297 4.1 17:34:24 10° S 17:39:54 43° ESE 17:44:45 13° NE
Cosmos 1939 Rocket 2.8 17:36:23 10° SSE 17:40:25 65° E 17:44:27 10° N
BREEZE-M R/B 4.5 17:31:49 10° SW 17:43:49 41° SSE 17:47:01 18° E
Atlas Centaur 2 3.3 17:39:19 10° NW 17:45:15 30° NNE 17:48:17 19° ENE
Cosmos 2278 Rocket 3.6 17:40:14 10° SW 17:45:32 40° WNW 17:50:47 10° N
Cosmos 1455 Rocket 4.0 17:41:44 10° SSE 17:45:40 29° ESE 17:47:38 21° ENE
Meteor 1-22 Rocket 4.1 17:44:09 10° S 17:49:37 81° E 17:55:12 10° N
SeaSat 1 2.4 17:48:07 10° SSE 17:53:07 89° ENE 17:58:04 10° NNW
CZ-2C R/B 2.9 17:49:16 10° N 17:54:50 76° WNW 18:00:23 10° SSW
SL-24 R/B 4.2 17:51:43 10° SSE 17:56:33 87° W 18:00:56 10° NNW
USA 305 4.1 17:56:06 10° SSW 17:59:53 27° SE 18:00:57 25° ESE
Meteor 1-21 4.2 17:54:16 10° N 17:59:55 85° E 18:05:45 10° S
Okean 1 Rocket 4.2 17:56:47 10° SSW 18:01:03 46° W 18:05:19 10° NNW
Cosmos 1975 Rocket 3.1 17:57:41 10° N 18:02:04 81° W 18:06:34 10° S
USA 306 4.0 18:00:28 10° SSW 18:04:20 29° SE 18:05:12 27° ESE
DMSP B5D2-2 4.4 17:59:42 10° N 18:04:56 69° WNW 18:10:13 10° SSW
CSL-04 Rocket 4.0 18:04:26 10° SSE 18:09:26 39° E 18:14:24 10° NNE
Lacrosse 5 3.6 18:06:29 10° S 18:09:59 18° SE 18:10:54 17° SE
Helios 1A Rocket 3.4 18:06:24 10° S 18:10:27 61° WSW 18:14:29 10° NNW
Cosmos 1726 4.2 18:08:11 10° SSE 18:09:06 15° SSE 18:09:06 15° SSE
Cosmos 1470 2.8 18:08:23 10° S 18:12:23 59° E 18:13:13 47° NE
YAOGAN 1 2.4 18:08:38 10° SSE 18:13:02 73° ENE 18:17:22 10° N
Cosmos 1634 Rocket 4.2 18:09:03 10° S 18:15:18 73° W 18:21:27 10° N
Nadezhda 4 Rocket 4.3 18:11:36 13° NNE 18:16:49 43° E 18:22:45 10° SSE
BREEZE-M DEB (TANK) 3.3 18:14:58 10° NW 18:18:46 81° SW 18:31:08 10° SE
IUS-17 SRM-1 4.0 18:23:42 10° WNW 18:24:47 23° NW 18:24:47 23° NW
SL-16 R/B 4.3 18:21:55 10° WNW 18:26:41 27° WSW 18:31:31 10° S
Cosmos 1707 2.9 18:22:54 10° N 18:26:47 74° W 18:30:43 10° S
Meteor 2-10 4.2 18:22:04 10° S 18:27:48 65° E 18:29:52 40° NNE
Cosmos 1943 Rocket 2.2 18:24:47 10° SSW 18:30:26 60° ESE 18:31:26 52° ENE
CZ-4 R/B 2.3 18:26:33 10° S 18:30:38 51° WSW 18:34:44 10° NNW
SJ-11-01 4.2 18:26:31 10° SSE 18:31:19 67° E 18:32:10 55° NNE
CZ-2C R/B 2.7 18:27:10 10° SSE 18:32:01 84° E 18:36:59 10° NNW
Cosmos 1953 4.3 18:28:40 10° SSE 18:30:01 18° SSE 18:30:01 18° SSE
Hubble Space Telescope 1.7 18:28:50 10° WNW 18:32:18 37° NNW 18:32:18 37° NNW
EO 1 Delta rocket 3.7 18:31:45 50° NNE 18:33:00 76° E 18:37:40 10° S
USA 307 3.4 18:29:19 10° SSW 18:33:14 48° SSE 18:33:14 48° SSE
Okean-O 3.7 18:30:01 10° S 18:34:18 45° WSW 18:38:33 10° NW
USA 308 3.4 18:32:39 10° SW 18:36:27 50° SSE 18:36:27 50° SSE
Cosmos 1544 Rocket 3.5 18:34:52 10° S 18:39:02 74° SSE 18:39:02 74° SSE
ATLAS 5 CENTAUR R/B 3.0 18:35:03 10° SSW 18:38:49 29° SSE 18:38:49 29° SSE
USA 215 3.2 18:44:56 50° E 18:46:23 61° NE 18:52:51 10° NNW
Cosmos 1943 3.1 18:41:02 10° NNW 18:46:44 89° WSW 18:52:31 10° SSE
ARGOS 3.9 18:42:02 10° SSE 18:45:28 38° SE 18:45:28 38° SE
Cosmos 2180 Rocket 4.4 18:43:19 10° S 18:49:32 82° W 18:52:18 36° N
Cosmos 2279 Rocket 4.4 18:45:35 10° SSW 18:51:45 60° W 18:57:14 13° N
Cosmos 1758 4.2 18:48:49 10° SSW 18:52:17 48° WSW 18:52:17 48° WSW
Cosmos 1025 Rocket 3.8 18:55:49 43° WNW 18:56:42 50° W 19:01:01 10° S
NOSS 2-1 (C) 4.4 18:49:16 10° SSW 18:57:21 73° ESE 18:57:42 71° E
NOSS 2-1 (D) 4.4 18:54:17 10° SSW 19:02:23 79° ESE 19:02:37 78° E
Cosmos 1371 Rocket 4.3 19:02:06 10° SSW 19:06:34 63° SW 19:06:34 63° SW
OAO 3 Rocket 4.1 19:02:58 10° W 19:06:11 44° WSW 19:06:11 44° WSW
H-2A R/B 2.6 19:06:14 10° S 19:11:06 52° WSW 19:11:30 51° W
Cosmos 2369 Rocket 2.7 19:11:24 10° SSW 19:15:46 55° SSW 19:15:46 55° SSW
Cosmos 2056 Rocket 4.3 19:16:16 10° SSW 19:20:22 50° SW 19:20:22 50° SW
Atlas Centaur 2 3.9 19:28:15 10° WNW 19:30:55 24° WNW 19:30:55 24° WNW
BREEZE-M DEB (TANK) 4.4 19:24:42 10° WSW 19:48:54 83° NW 19:48:54 83° NW
Lacrosse 5 4.1 19:48:20 10° SW 19:50:06 22° SW 19:50:06 22° SW
